THY8EQ LTFM-LJLJ

Flight info

Callsign THY8EQ
Flight time N/A
Altitude 34000
Route VADEN Y520 OSTEX DCT BAKLO DCT XANEX DCT UTEKA DCT SMI DCT VASLE VASLE1R
Aircraft A320/M-SDE3FGHIRWY/LB1

Departure

Time N/A
Airport İstanbul Airport (LTFM)

Arrival

Time 2026-05-08 13:16
Airport Ljubljana Jože Pučnik Airport (LJLJ)
Time Latitude Longitude Altitude Speed Heading
2026-05-08 13:02 45.75073 16.02675 19479 ft 342 kts 284°
2026-05-08 13:03 45.76366 15.96181 18725 ft 338 kts 284°
2026-05-08 13:03 45.77645 15.89725 17926 ft 335 kts 284°
2026-05-08 13:03 45.78919 15.83329 17047 ft 332 kts 284°
2026-05-08 13:03 45.80177 15.76996 16233 ft 329 kts 284°
2026-05-08 13:04 45.81419 15.70711 15447 ft 326 kts 284°
2026-05-08 13:04 45.82629 15.64552 14680 ft 324 kts 284°
2026-05-08 13:04 45.83836 15.58380 13921 ft 320 kts 285°
2026-05-08 13:04 45.85022 15.52334 13180 ft 316 kts 284°
2026-05-08 13:05 45.86210 15.46264 12707 ft 311 kts 284°
2026-05-08 13:05 45.87372 15.40232 12235 ft 308 kts 284°
2026-05-08 13:05 45.88851 15.32578 11650 ft 304 kts 284°
2026-05-08 13:05 45.90408 15.24539 10928 ft 304 kts 284°
2026-05-08 13:06 45.90958 15.21679 10719 ft 299 kts 285°
2026-05-08 13:06 45.91708 15.18913 10517 ft 297 kts 296°
2026-05-08 13:06 45.92640 15.16294 10248 ft 292 kts 296°
2026-05-08 13:06 45.93568 15.13670 9967 ft 289 kts 296°
2026-05-08 13:07 45.94456 15.11152 9692 ft 286 kts 296°
2026-05-08 13:07 45.95350 15.08616 9414 ft 283 kts 296°
2026-05-08 13:07 45.96230 15.06117 9175 ft 279 kts 296°
2026-05-08 13:07 45.97111 15.03621 8923 ft 274 kts 296°
2026-05-08 13:08 45.97958 15.01225 8698 ft 271 kts 296°
2026-05-08 13:08 45.98803 14.98832 8468 ft 266 kts 296°
2026-05-08 13:08 45.99635 14.96473 8240 ft 263 kts 296°
2026-05-08 13:08 46.00467 14.94109 8006 ft 260 kts 296°
2026-05-08 13:09 46.01267 14.91834 7835 ft 253 kts 296°
2026-05-08 13:09 46.01993 14.89771 7619 ft 252 kts 296°
2026-05-08 13:09 46.02784 14.87525 7369 ft 250 kts 297°
2026-05-08 13:09 46.03567 14.85298 7125 ft 248 kts 296°
2026-05-08 13:10 46.04351 14.83059 6881 ft 246 kts 296°
2026-05-08 13:10 46.05119 14.80864 6637 ft 245 kts 296°
2026-05-08 13:10 46.05880 14.78690 6386 ft 242 kts 296°
2026-05-08 13:10 46.06634 14.76533 6099 ft 241 kts 300°
2026-05-08 13:11 46.07564 14.74514 5745 ft 243 kts 306°
2026-05-08 13:11 46.08576 14.72557 5408 ft 244 kts 307°
2026-05-08 13:11 46.09584 14.70621 5082 ft 245 kts 306°
2026-05-08 13:11 46.10614 14.68629 4763 ft 245 kts 306°
2026-05-08 13:12 46.11609 14.66701 4436 ft 239 kts 306°
2026-05-08 13:12 46.12599 14.64782 4114 ft 231 kts 306°
2026-05-08 13:12 46.13540 14.62954 3822 ft 224 kts 306°
2026-05-08 13:12 46.14445 14.61198 3525 ft 217 kts 306°
2026-05-08 13:13 46.15333 14.59472 3271 ft 211 kts 306°
2026-05-08 13:13 46.16180 14.57825 2967 ft 198 kts 306°
2026-05-08 13:13 46.16974 14.56280 2725 ft 183 kts 306°
2026-05-08 13:13 46.17685 14.54896 2477 ft 161 kts 307°
2026-05-08 13:14 46.18325 14.53651 2259 ft 150 kts 307°
2026-05-08 13:14 46.18936 14.52457 2049 ft 146 kts 308°
2026-05-08 13:14 46.19537 14.51302 1865 ft 144 kts 307°
2026-05-08 13:14 46.20132 14.50139 1679 ft 143 kts 307°
2026-05-08 13:15 46.20718 14.48978 1479 ft 144 kts 307°
2026-05-08 13:15 46.21314 14.47831 1287 ft 142 kts 307°
2026-05-08 13:15 46.21889 14.46705 1226 ft 129 kts 307°
2026-05-08 13:15 46.22330 14.45840 1247 ft 82 kts 306°
2026-05-08 13:16 46.22595 14.45323 1258 ft 56 kts 306°
2026-05-08 13:16 46.22815 14.44889 1265 ft 51 kts 306°
2026-05-08 13:16 46.23019 14.44492 1273 ft 47 kts 306°
2026-05-08 13:16 46.23184 14.44172 1280 ft 28 kts 307°
2026-05-08 13:17 46.23351 14.44093 1286 ft 26 kts 24°
2026-05-08 13:17 46.23375 14.44254 1284 ft 20 kts 123°
2026-05-08 13:17 46.23281 14.44436 1276 ft 26 kts 127°
2026-05-08 13:17 46.23164 14.44664 1269 ft 30 kts 127°
2026-05-08 13:18 46.23044 14.44898 1265 ft 23 kts 125°
2026-05-08 13:18 46.22964 14.45071 1266 ft 14 kts 105°
2026-05-08 13:18 46.23024 14.45170 1259 ft 15 kts 35°
2026-05-08 13:18 46.23028 14.45263 1260 ft 11 kts 127°
2026-05-08 13:19 46.23020 14.45339 1263 ft 9 kts 35°
2026-05-08 13:19 46.23047 14.45368 1258 ft 4 kts 36°
2026-05-08 13:19 46.23051 14.45372 1258 ft 0 kts 36°